owner,sensor,date,latitude,longitude,sea_surface_height_above_sea_level,qcFlag 
TCOON,ioos:station:TCOON:003:1,2015-04-01T00:12:00Z,26.8015,-97.4706,1.211,1111122 
TCOON,ioos:station:TCOON:003:1,2015-04-01T01:12:00Z,26.8015,-97.4706,1.208,1111122 
TCOON,ioos:station:TCOON:003:1,2015-04-01T02:12:00Z,26.8015,-97.4706,1.199,1111122 
TCOON,ioos:station:TCOON:003:1,2015-04-01T03:24:00Z,26.8015,-97.4706,1.143,1111122 
TCOON,ioos:station:TCOON:003:1,2015-04-01T04:18:00Z,26.8015,-97.4706,1.125,1111122 
TCOON,ioos:station:TCOON:003:1,2015-04-01T05:18:00Z,26.8015,-97.4706,1.145,1111122 
TCOON,ioos:station:TCOON:003:1,2015-04-01T07:06:00Z,26.8015,-97.4706,1.258,1111122 
TCOON,ioos:station:TCOON:003:1,2015-04-01T08:18:00Z,26.8015,-97.4706,1.294,1111122 
TCOON,ioos:station:TCOON:003:1,2015-04-01T09:24:00Z,26.8015,-97.4706,1.277,1111122 
TCOON,ioos:station:TCOON:003:1,2015-04-01T10:18:00Z,26.8015,-97.4706,1.227,1111122 
TCOON,ioos:station:TCOON:003:1,2015-04-01T11:12:00Z,26.8015,-97.4706,1.192,1111122 
TCOON,ioos:station:TCOON:003:1,2015-04-01T12:12:00Z,26.8015,-97.4706,1.23,1111122 
TCOON,ioos:station:TCOON:003:1,2015-04-01T13:12:00Z,26.8015,-97.4706,1.244,1111122 
TCOON,ioos:station:TCOON:003:1,2015-04-01T14:12:00Z,26.8015,-97.4706,1.25,1111122 
TCOON,ioos:station:TCOON:003:1,2015-04-01T15:18:00Z,26.8015,-97.4706,1.175,1111122 
TCOON,ioos:station:TCOON:003:1,2015-04-01T16:18:00Z,26.8015,-97.4706,1.16,1111122 
TCOON,ioos:station:TCOON:003:1,2015-04-01T17:18:00Z,26.8015,-97.4706,1.17,1111122 
TCOON,ioos:station:TCOON:003:1,2015-04-01T18:12:00Z,26.8015,-97.4706,1.192,1111122 
TCOON,ioos:station:TCOON:003:1,2015-04-01T19:18:00Z,26.8015,-97.4706,1.211,1111122 
TCOON,ioos:station:TCOON:003:1,2015-04-01T20:18:00Z,26.8015,-97.4706,1.282,1111122 
TCOON,ioos:station:TCOON:003:1,2015-04-01T21:12:00Z,26.8015,-97.4706,1.306,1111122 
TCOON,ioos:station:TCOON:003:1,2015-04-01T22:18:00Z,26.8015,-97.4706,1.322,1111122 
TCOON,ioos:station:TCOON:003:1,2015-04-01T23:12:00Z,26.8015,-97.4706,1.326,1111122 
TCOON,ioos:station:TCOON:003:1,2015-04-02T00:12:00Z,26.8015,-97.4706,1.311,1111122 
TCOON,ioos:station:TCOON:003:1,2015-04-02T01:12:00Z,26.8015,-97.4706,1.304,1111122 
TCOON,ioos:station:TCOON:003:1,2015-04-02T02:12:00Z,26.8015,-97.4706,1.283,1111122 
TCOON,ioos:station:TCOON:003:1,2015-04-02T03:12:00Z,26.8015,-97.4706,1.258,1111122 
TCOON,ioos:station:TCOON:003:1,2015-04-02T04:18:00Z,26.8015,-97.4706,1.236,1111122 
TCOON,ioos:station:TCOON:003:1,2015-04-02T05:18:00Z,26.8015,-97.4706,1.238,1111122 
TCOON,ioos:station:TCOON:003:1,2015-04-02T06:18:00Z,26.8015,-97.4706,1.244,1111122 
TCOON,ioos:station:TCOON:003:1,2015-04-02T07:12:00Z,26.8015,-97.4706,1.251,1111122 
TCOON,ioos:station:TCOON:003:1,2015-04-02T08:12:00Z,26.8015,-97.4706,1.257,1111122 
TCOON,ioos:station:TCOON:003:1,2015-04-02T09:30:00Z,26.8015,-97.4706,1.222,1111122 
TCOON,ioos:station:TCOON:003:1,2015-04-02T10:12:00Z,26.8015,-97.4706,1.208,1111122 
TCOON,ioos:station:TCOON:003:1,2015-04-02T11:18:00Z,26.8015,-97.4706,1.183,1111122 
TCOON,ioos:station:TCOON:003:1,2015-04-02T12:18:00Z,26.8015,-97.4706,1.173,1111122 
TCOON,ioos:station:TCOON:003:1,2015-04-02T13:18:00Z,26.8015,-97.4706,1.18,1111122 
TCOON,ioos:station:TCOON:003:1,2015-04-02T14:12:00Z,26.8015,-97.4706,1.195,1111122 
TCOON,ioos:station:TCOON:003:1,2015-04-02T15:18:00Z,26.8015,-97.4706,1.206,1111122 
TCOON,ioos:station:TCOON:003:1,2015-04-02T16:12:00Z,26.8015,-97.4706,1.21,1111122 
TCOON,ioos:station:TCOON:003:1,2015-04-02T17:18:00Z,26.8015,-97.4706,1.209,1111122 
TCOON,ioos:station:TCOON:003:1,2015-04-02T18:18:00Z,26.8015,-97.4706,1.209,1111122 
TCOON,ioos:station:TCOON:003:1,2015-04-02T19:12:00Z,26.8015,-97.4706,1.212,1111122 
TCOON,ioos:station:TCOON:003:1,2015-04-02T20:12:00Z,26.8015,-97.4706,1.226,1111122 
TCOON,ioos:station:TCOON:003:1,2015-04-02T21:12:00Z,26.8015,-97.4706,1.239,1111122 
TCOON,ioos:station:TCOON:003:1,2015-04-02T22:12:00Z,26.8015,-97.4706,1.256,1111122 
TCOON,ioos:station:TCOON:003:1,2015-04-02T23:12:00Z,26.8015,-97.4706,1.272,1111122 
TCOON,ioos:station:TCOON:003:1,2015-04-03T00:12:00Z,26.8015,-97.4706,1.274,1111122 
TCOON,ioos:station:TCOON:003:1,2015-04-03T01:12:00Z,26.8015,-97.4706,1.275,1111122 
TCOON,ioos:station:TCOON:003:1,2015-04-03T02:12:00Z,26.8015,-97.4706,1.272,1111122 
TCOON,ioos:station:TCOON:003:1,2015-04-03T03:18:00Z,26.8015,-97.4706,1.267,1111122 
TCOON,ioos:station:TCOON:003:1,2015-04-03T04:12:00Z,26.8015,-97.4706,1.26,1111122 
TCOON,ioos:station:TCOON:003:1,2015-04-03T05:18:00Z,26.8015,-97.4706,1.251,1111122 
TCOON,ioos:station:TCOON:003:1,2015-04-03T06:18:00Z,26.8015,-97.4706,1.252,1111122 
TCOON,ioos:station:TCOON:003:1,2015-04-03T07:12:00Z,26.8015,-97.4706,1.245,1111122 
TCOON,ioos:station:TCOON:003:1,2015-04-03T08:12:00Z,26.8015,-97.4706,1.276,1111122 
TCOON,ioos:station:TCOON:003:1,2015-04-03T09:30:00Z,26.8015,-97.4706,1.259,1111122 
TCOON,ioos:station:TCOON:003:1,2015-04-03T10:12:00Z,26.8015,-97.4706,1.253,1111122 
TCOON,ioos:station:TCOON:003:1,2015-04-03T11:18:00Z,26.8015,-97.4706,1.254,1111122 
TCOON,ioos:station:TCOON:003:1,2015-04-03T12:18:00Z,26.8015,-97.4706,1.252,1111122 
TCOON,ioos:station:TCOON:003:1,2015-04-03T13:12:00Z,26.8015,-97.4706,1.259,1111122 
TCOON,ioos:station:TCOON:003:1,2015-04-03T14:12:00Z,26.8015,-97.4706,1.262,1111122 
TCOON,ioos:station:TCOON:003:1,2015-04-03T15:18:00Z,26.8015,-97.4706,1.258,1111122 
TCOON,ioos:station:TCOON:003:1,2015-04-03T16:12:00Z,26.8015,-97.4706,1.247,1111122 
TCOON,ioos:station:TCOON:003:1,2015-04-03T17:12:00Z,26.8015,-97.4706,1.228,1111122 
TCOON,ioos:station:TCOON:003:1,2015-04-03T18:12:00Z,26.8015,-97.4706,1.239,1111122 
TCOON,ioos:station:TCOON:003:1,2015-04-03T19:12:00Z,26.8015,-97.4706,1.271,1111122 
TCOON,ioos:station:TCOON:003:1,2015-04-03T20:12:00Z,26.8015,-97.4706,1.288,1111122 
TCOON,ioos:station:TCOON:003:1,2015-04-03T21:12:00Z,26.8015,-97.4706,1.277,1111122 
TCOON,ioos:station:TCOON:003:1,2015-04-03T22:12:00Z,26.8015,-97.4706,1.265,1111122 
TCOON,ioos:station:TCOON:003:1,2015-04-03T23:12:00Z,26.8015,-97.4706,1.242,1111122 
TCOON,ioos:station:TCOON:003:1,2015-04-04T00:12:00Z,26.8015,-97.4706,1.22,1111122 
TCOON,ioos:station:TCOON:003:1,2015-04-04T01:30:00Z,26.8015,-97.4706,1.212,1111122 
TCOON,ioos:station:TCOON:003:1,2015-04-04T02:12:00Z,26.8015,-97.4706,1.215,1111122 
TCOON,ioos:station:TCOON:003:1,2015-04-04T03:12:00Z,26.8015,-97.4706,1.215,1111122 
TCOON,ioos:station:TCOON:003:1,2015-04-04T04:12:00Z,26.8015,-97.4706,1.237,1111122 
TCOON,ioos:station:TCOON:003:1,2015-04-04T05:12:00Z,26.8015,-97.4706,1.235,1111122 
TCOON,ioos:station:TCOON:003:1,2015-04-04T07:06:00Z,26.8015,-97.4706,1.166,1111122 
TCOON,ioos:station:TCOON:003:1,2015-04-04T08:12:00Z,26.8015,-97.4706,1.15,1111122 
TCOON,ioos:station:TCOON:003:1,2015-04-04T09:12:00Z,26.8015,-97.4706,1.115,1111122 
TCOON,ioos:station:TCOON:003:1,2015-04-04T10:12:00Z,26.8015,-97.4706,1.068,1111122 
TCOON,ioos:station:TCOON:003:1,2015-04-04T11:12:00Z,26.8015,-97.4706,1.051,1111122 
TCOON,ioos:station:TCOON:003:1,2015-04-04T12:12:00Z,26.8015,-97.4706,1.029,1111122 
TCOON,ioos:station:TCOON:003:1,2015-04-04T13:12:00Z,26.8015,-97.4706,0.984,1111122 
TCOON,ioos:station:TCOON:003:1,2015-04-04T14:12:00Z,26.8015,-97.4706,0.949,1111122 
TCOON,ioos:station:TCOON:003:1,2015-04-04T15:12:00Z,26.8015,-97.4706,0.937,1111122 
TCOON,ioos:station:TCOON:003:1,2015-04-04T16:12:00Z,26.8015,-97.4706,0.951,1111122 
TCOON,ioos:station:TCOON:003:1,2015-04-04T17:12:00Z,26.8015,-97.4706,0.979,1111122 
TCOON,ioos:station:TCOON:003:1,2015-04-04T18:12:00Z,26.8015,-97.4706,0.999,1111122 
TCOON,ioos:station:TCOON:003:1,2015-04-04T19:12:00Z,26.8015,-97.4706,1.016,1111122 
TCOON,ioos:station:TCOON:003:1,2015-04-04T20:12:00Z,26.8015,-97.4706,1.026,1111122 
TCOON,ioos:station:TCOON:003:1,2015-04-04T21:12:00Z,26.8015,-97.4706,1.03,1111122 
TCOON,ioos:station:TCOON:003:1,2015-04-04T22:12:00Z,26.8015,-97.4706,1.03,1111122 
TCOON,ioos:station:TCOON:003:1,2015-04-04T23:12:00Z,26.8015,-97.4706,1.032,1111122 
TCOON,ioos:station:TCOON:003:1,2015-04-05T00:12:00Z,26.8015,-97.4706,1.046,1111122 
TCOON,ioos:station:TCOON:003:1,2015-04-05T01:12:00Z,26.8015,-97.4706,1.058,1111122 
TCOON,ioos:station:TCOON:003:1,2015-04-05T02:12:00Z,26.8015,-97.4706,1.067,1111122 
TCOON,ioos:station:TCOON:003:1,2015-04-05T03:12:00Z,26.8015,-97.4706,1.082,1111122 
TCOON,ioos:station:TCOON:003:1,2015-04-05T04:12:00Z,26.8015,-97.4706,1.092,1111122 
TCOON,ioos:station:TCOON:003:1,2015-04-05T05:12:00Z,26.8015,-97.4706,1.089,1111122 
TCOON,ioos:station:TCOON:003:1,2015-04-05T07:06:00Z,26.8015,-97.4706,1.1,1111122 
TCOON,ioos:station:TCOON:003:1,2015-04-05T08:12:00Z,26.8015,-97.4706,1.111,1111122 
TCOON,ioos:station:TCOON:003:1,2015-04-05T09:12:00Z,26.8015,-97.4706,1.113,1111122 
TCOON,ioos:station:TCOON:003:1,2015-04-05T10:12:00Z,26.8015,-97.4706,1.118,1111122 
TCOON,ioos:station:TCOON:003:1,2015-04-05T11:12:00Z,26.8015,-97.4706,1.12,1111122 
TCOON,ioos:station:TCOON:003:1,2015-04-05T12:12:00Z,26.8015,-97.4706,1.11,1111122 
TCOON,ioos:station:TCOON:003:1,2015-04-05T13:12:00Z,26.8015,-97.4706,1.09,1111122 
TCOON,ioos:station:TCOON:003:1,2015-04-05T14:12:00Z,26.8015,-97.4706,1.08,1111122 
TCOON,ioos:station:TCOON:003:1,2015-04-05T15:18:00Z,26.8015,-97.4706,1.082,1111122 
TCOON,ioos:station:TCOON:003:1,2015-04-05T16:12:00Z,26.8015,-97.4706,1.089,1111122 
TCOON,ioos:station:TCOON:003:1,2015-04-05T17:12:00Z,26.8015,-97.4706,1.108,1111122 
TCOON,ioos:station:TCOON:003:1,2015-04-05T18:12:00Z,26.8015,-97.4706,1.136,1111122 
TCOON,ioos:station:TCOON:003:1,2015-04-05T19:12:00Z,26.8015,-97.4706,1.157,1111122 
TCOON,ioos:station:TCOON:003:1,2015-04-05T20:12:00Z,26.8015,-97.4706,1.195,1111122 
TCOON,ioos:station:TCOON:003:1,2015-04-05T21:12:00Z,26.8015,-97.4706,1.25,1111122 
TCOON,ioos:station:TCOON:003:1,2015-04-05T22:12:00Z,26.8015,-97.4706,1.296,1111122 
TCOON,ioos:station:TCOON:003:1,2015-04-05T23:12:00Z,26.8015,-97.4706,1.313,1111122 
TCOON,ioos:station:TCOON:003:1,2015-04-06T00:12:00Z,26.8015,-97.4706,1.305,1111122 
TCOON,ioos:station:TCOON:003:1,2015-04-06T01:12:00Z,26.8015,-97.4706,1.273,1111122 
TCOON,ioos:station:TCOON:003:1,2015-04-06T02:12:00Z,26.8015,-97.4706,1.239,1111122 
TCOON,ioos:station:TCOON:003:1,2015-04-06T03:12:00Z,26.8015,-97.4706,1.221,1111122 
TCOON,ioos:station:TCOON:003:1,2015-04-06T04:12:00Z,26.8015,-97.4706,1.206,1111122 
TCOON,ioos:station:TCOON:003:1,2015-04-06T05:18:00Z,26.8015,-97.4706,1.202,1111122 
TCOON,ioos:station:TCOON:003:1,2015-04-06T06:18:00Z,26.8015,-97.4706,1.198,1111122 
TCOON,ioos:station:TCOON:003:1,2015-04-06T07:12:00Z,26.8015,-97.4706,1.204,1111122 
TCOON,ioos:station:TCOON:003:1,2015-04-06T08:12:00Z,26.8015,-97.4706,1.215,1111122 
TCOON,ioos:station:TCOON:003:1,2015-04-06T09:18:00Z,26.8015,-97.4706,1.245,1111122 
TCOON,ioos:station:TCOON:003:1,2015-04-06T10:12:00Z,26.8015,-97.4706,1.261,1111122 
TCOON,ioos:station:TCOON:003:1,2015-04-06T11:12:00Z,26.8015,-97.4706,1.262,1111122 
TCOON,ioos:station:TCOON:003:1,2015-04-06T12:12:00Z,26.8015,-97.4706,1.238,1111122 
TCOON,ioos:station:TCOON:003:1,2015-04-06T13:12:00Z,26.8015,-97.4706,1.215,1111122 
TCOON,ioos:station:TCOON:003:1,2015-04-06T14:12:00Z,26.8015,-97.4706,1.205,1111122 
TCOON,ioos:station:TCOON:003:1,2015-04-06T15:18:00Z,26.8015,-97.4706,1.209,1111122 
TCOON,ioos:station:TCOON:003:1,2015-04-06T16:12:00Z,26.8015,-97.4706,1.228,1111122 
TCOON,ioos:station:TCOON:003:1,2015-04-06T17:18:00Z,26.8015,-97.4706,1.268,1111122 
TCOON,ioos:station:TCOON:003:1,2015-04-06T18:18:00Z,26.8015,-97.4706,1.323,1111122 
TCOON,ioos:station:TCOON:003:1,2015-04-06T19:18:00Z,26.8015,-97.4706,1.357,1111122 
TCOON,ioos:station:TCOON:003:1,2015-04-06T20:18:00Z,26.8015,-97.4706,1.383,1111122 
TCOON,ioos:station:TCOON:003:1,2015-04-06T21:18:00Z,26.8015,-97.4706,1.379,1111122 
TCOON,ioos:station:TCOON:003:1,2015-04-06T22:18:00Z,26.8015,-97.4706,1.387,1111122 
TCOON,ioos:station:TCOON:003:1,2015-04-06T23:12:00Z,26.8015,-97.4706,1.394,1111122 
TCOON,ioos:station:TCOON:003:1,2015-04-07T00:12:00Z,26.8015,-97.4706,1.381,1111122 
TCOON,ioos:station:TCOON:003:1,2015-04-07T01:12:00Z,26.8015,-97.4706,1.355,1111122 
TCOON,ioos:station:TCOON:003:1,2015-04-07T02:12:00Z,26.8015,-97.4706,1.317,1111122 
TCOON,ioos:station:TCOON:003:1,2015-04-07T03:12:00Z,26.8015,-97.4706,1.291,1111122 
TCOON,ioos:station:TCOON:003:1,2015-04-07T04:18:00Z,26.8015,-97.4706,1.285,1111122 
TCOON,ioos:station:TCOON:003:1,2015-04-07T05:12:00Z,26.8015,-97.4706,1.289,1111122 
TCOON,ioos:station:TCOON:003:1,2015-04-07T07:06:00Z,26.8015,-97.4706,1.295,1111122 
TCOON,ioos:station:TCOON:003:1,2015-04-07T08:12:00Z,26.8015,-97.4706,1.297,1111122 
TCOON,ioos:station:TCOON:003:1,2015-04-07T09:18:00Z,26.8015,-97.4706,1.284,1111122 
TCOON,ioos:station:TCOON:003:1,2015-04-07T10:12:00Z,26.8015,-97.4706,1.279,1111122 
TCOON,ioos:station:TCOON:003:1,2015-04-07T11:18:00Z,26.8015,-97.4706,1.286,1111122 
TCOON,ioos:station:TCOON:003:1,2015-04-07T12:18:00Z,26.8015,-97.4706,1.307,1111122 
TCOON,ioos:station:TCOON:003:1,2015-04-07T13:12:00Z,26.8015,-97.4706,1.335,1111122 
TCOON,ioos:station:TCOON:003:1,2015-04-07T14:12:00Z,26.8015,-97.4706,1.37,1111122 
TCOON,ioos:station:TCOON:003:1,2015-04-07T15:18:00Z,26.8015,-97.4706,1.379,1111122 
TCOON,ioos:station:TCOON:003:1,2015-04-07T16:18:00Z,26.8015,-97.4706,1.383,1111122 
TCOON,ioos:station:TCOON:003:1,2015-04-07T17:18:00Z,26.8015,-97.4706,1.385,1111122 
TCOON,ioos:station:TCOON:003:1,2015-04-07T18:18:00Z,26.8015,-97.4706,1.389,1111122 
TCOON,ioos:station:TCOON:003:1,2015-04-07T19:18:00Z,26.8015,-97.4706,1.377,1111122 
TCOON,ioos:station:TCOON:003:1,2015-04-07T20:12:00Z,26.8015,-97.4706,1.367,1111122 
TCOON,ioos:station:TCOON:003:1,2015-04-07T21:18:00Z,26.8015,-97.4706,1.371,1111122 
TCOON,ioos:station:TCOON:003:1,2015-04-07T22:24:00Z,26.8015,-97.4706,1.374,1111122 
TCOON,ioos:station:TCOON:003:1,2015-04-07T23:12:00Z,26.8015,-97.4706,1.374,1111122 
TCOON,ioos:station:TCOON:003:1,2015-04-08T00:12:00Z,26.8015,-97.4706,1.37,1111122 
TCOON,ioos:station:TCOON:003:1,2015-04-08T01:12:00Z,26.8015,-97.4706,1.355,1111122 
TCOON,ioos:station:TCOON:003:1,2015-04-08T02:12:00Z,26.8015,-97.4706,1.332,1111122 
TCOON,ioos:station:TCOON:003:1,2015-04-08T03:12:00Z,26.8015,-97.4706,1.323,1111122 
TCOON,ioos:station:TCOON:003:1,2015-04-08T04:12:00Z,26.8015,-97.4706,1.333,1111122 
TCOON,ioos:station:TCOON:003:1,2015-04-08T05:18:00Z,26.8015,-97.4706,1.367,1111122 
TCOON,ioos:station:TCOON:003:1,2015-04-08T07:06:00Z,26.8015,-97.4706,1.394,1111122 
TCOON,ioos:station:TCOON:003:1,2015-04-08T08:12:00Z,26.8015,-97.4706,1.393,1111122 
TCOON,ioos:station:TCOON:003:1,2015-04-08T09:18:00Z,26.8015,-97.4706,1.396,1111122 
TCOON,ioos:station:TCOON:003:1,2015-04-08T10:12:00Z,26.8015,-97.4706,1.395,1111122 
TCOON,ioos:station:TCOON:003:1,2015-04-08T11:12:00Z,26.8015,-97.4706,1.36,1111122 
TCOON,ioos:station:TCOON:003:1,2015-04-08T12:12:00Z,26.8015,-97.4706,1.344,1111122 
TCOON,ioos:station:TCOON:003:1,2015-04-08T13:18:00Z,26.8015,-97.4706,1.374,1111122 
TCOON,ioos:station:TCOON:003:1,2015-04-08T14:12:00Z,26.8015,-97.4706,1.388,1111122 
TCOON,ioos:station:TCOON:003:1,2015-04-08T15:18:00Z,26.8015,-97.4706,1.39,1111122 
TCOON,ioos:station:TCOON:003:1,2015-04-08T16:18:00Z,26.8015,-97.4706,1.39,1111122 
TCOON,ioos:station:TCOON:003:1,2015-04-08T17:18:00Z,26.8015,-97.4706,1.379,1111122 
TCOON,ioos:station:TCOON:003:1,2015-04-08T18:12:00Z,26.8015,-97.4706,1.39,1111122 
TCOON,ioos:station:TCOON:003:1,2015-04-08T19:18:00Z,26.8015,-97.4706,1.418,1111122 
TCOON,ioos:station:TCOON:003:1,2015-04-08T20:24:00Z,26.8015,-97.4706,1.428,1111122 
TCOON,ioos:station:TCOON:003:1,2015-04-08T21:12:00Z,26.8015,-97.4706,1.433,1111122 
TCOON,ioos:station:TCOON:003:1,2015-04-08T22:18:00Z,26.8015,-97.4706,1.434,1111122 
TCOON,ioos:station:TCOON:003:1,2015-04-08T23:36:00Z,26.8015,-97.4706,1.433,1111122 
TCOON,ioos:station:TCOON:003:1,2015-04-09T00:18:00Z,26.8015,-97.4706,1.411,1111122 
TCOON,ioos:station:TCOON:003:1,2015-04-09T01:12:00Z,26.8015,-97.4706,1.374,1111122 
TCOON,ioos:station:TCOON:003:1,2015-04-09T02:54:00Z,26.8015,-97.4706,1.327,1111122 
TCOON,ioos:station:TCOON:003:1,2015-04-09T03:12:00Z,26.8015,-97.4706,1.323,1111122 
TCOON,ioos:station:TCOON:003:1,2015-04-09T04:12:00Z,26.8015,-97.4706,1.308,1111122 
TCOON,ioos:station:TCOON:003:1,2015-04-09T05:12:00Z,26.8015,-97.4706,1.299,1111122 
TCOON,ioos:station:TCOON:003:1,2015-04-09T07:06:00Z,26.8015,-97.4706,1.312,1111122 
TCOON,ioos:station:TCOON:003:1,2015-04-09T08:18:00Z,26.8015,-97.4706,1.33,1111122 
TCOON,ioos:station:TCOON:003:1,2015-04-09T09:36:00Z,26.8015,-97.4706,1.374,1111122 
TCOON,ioos:station:TCOON:003:1,2015-04-09T10:12:00Z,26.8015,-97.4706,1.372,1111122 
TCOON,ioos:station:TCOON:003:1,2015-04-09T11:12:00Z,26.8015,-97.4706,1.37,1111122 
TCOON,ioos:station:TCOON:003:1,2015-04-09T12:18:00Z,26.8015,-97.4706,1.401,1111122 
TCOON,ioos:station:TCOON:003:1,2015-04-09T13:18:00Z,26.8015,-97.4706,1.447,1111122 
TCOON,ioos:station:TCOON:003:1,2015-04-09T14:12:00Z,26.8015,-97.4706,1.472,1111122 
TCOON,ioos:station:TCOON:003:1,2015-04-09T15:18:00Z,26.8015,-97.4706,1.467,1111122 
TCOON,ioos:station:TCOON:003:1,2015-04-09T16:18:00Z,26.8015,-97.4706,1.423,1111122 
TCOON,ioos:station:TCOON:003:1,2015-04-09T17:18:00Z,26.8015,-97.4706,1.393,1111122 
TCOON,ioos:station:TCOON:003:1,2015-04-09T18:36:00Z,26.8015,-97.4706,1.405,1111122 
TCOON,ioos:station:TCOON:003:1,2015-04-09T19:30:00Z,26.8015,-97.4706,1.428,1111122 
TCOON,ioos:station:TCOON:003:1,2015-04-09T20:24:00Z,26.8015,-97.4706,1.455,1111122 
TCOON,ioos:station:TCOON:003:1,2015-04-09T21:36:00Z,26.8015,-97.4706,1.495,1111122 
TCOON,ioos:station:TCOON:003:1,2015-04-09T22:18:00Z,26.8015,-97.4706,1.506,1111122 
TCOON,ioos:station:TCOON:003:1,2015-04-09T23:18:00Z,26.8015,-97.4706,1.499,1111122 
TCOON,ioos:station:TCOON:003:1,2015-04-10T00:12:00Z,26.8015,-97.4706,1.484,1111122 
TCOON,ioos:station:TCOON:003:1,2015-04-10T01:12:00Z,26.8015,-97.4706,1.458,1111122 
TCOON,ioos:station:TCOON:003:1,2015-04-10T02:12:00Z,26.8015,-97.4706,1.441,1111122 
TCOON,ioos:station:TCOON:003:1,2015-04-10T03:12:00Z,26.8015,-97.4706,1.427,1111122 
TCOON,ioos:station:TCOON:003:1,2015-04-10T04:24:00Z,26.8015,-97.4706,1.4,1111122 
TCOON,ioos:station:TCOON:003:1,2015-04-10T05:18:00Z,26.8015,-97.4706,1.391,1111122 
TCOON,ioos:station:TCOON:003:1,2015-04-10T07:30:00Z,26.8015,-97.4706,1.331,1111122 
TCOON,ioos:station:TCOON:003:1,2015-04-10T08:18:00Z,26.8015,-97.4706,1.313,1111122 
TCOON,ioos:station:TCOON:003:1,2015-04-10T09:24:00Z,26.8015,-97.4706,1.293,1111122 
TCOON,ioos:station:TCOON:003:1,2015-04-10T10:18:00Z,26.8015,-97.4706,1.287,1111122 
TCOON,ioos:station:TCOON:003:1,2015-04-10T11:12:00Z,26.8015,-97.4706,1.28,1111122 
TCOON,ioos:station:TCOON:003:1,2015-04-10T12:18:00Z,26.8015,-97.4706,1.267,1111122 
TCOON,ioos:station:TCOON:003:1,2015-04-10T13:18:00Z,26.8015,-97.4706,1.256,1111122 
TCOON,ioos:station:TCOON:003:1,2015-04-10T14:36:00Z,26.8015,-97.4706,1.25,1111122 
TCOON,ioos:station:TCOON:003:1,2015-04-10T15:18:00Z,26.8015,-97.4706,1.256,1111122 
TCOON,ioos:station:TCOON:003:1,2015-04-10T16:12:00Z,26.8015,-97.4706,1.26,1111122 
TCOON,ioos:station:TCOON:003:1,2015-04-10T17:18:00Z,26.8015,-97.4706,1.256,1111122 
TCOON,ioos:station:TCOON:003:1,2015-04-10T18:36:00Z,26.8015,-97.4706,1.25,1111122 
TCOON,ioos:station:TCOON:003:1,2015-04-10T20:48:00Z,26.8015,-97.4706,1.28,1111122 
TCOON,ioos:station:TCOON:003:1,2015-04-10T21:12:00Z,26.8015,-97.4706,1.275,1111122 
TCOON,ioos:station:TCOON:003:1,2015-04-10T22:24:00Z,26.8015,-97.4706,1.245,1111122 
TCOON,ioos:station:TCOON:003:1,2015-04-10T23:18:00Z,26.8015,-97.4706,1.235,1111122 
TCOON,ioos:station:TCOON:003:1,2015-04-11T00:48:00Z,26.8015,-97.4706,1.204,1111122 
TCOON,ioos:station:TCOON:003:1,2015-04-11T01:24:00Z,26.8015,-97.4706,1.208,1111122 
TCOON,ioos:station:TCOON:003:1,2015-04-11T02:12:00Z,26.8015,-97.4706,1.197,1111122 
TCOON,ioos:station:TCOON:003:1,2015-04-11T03:12:00Z,26.8015,-97.4706,1.204,1111122 
TCOON,ioos:station:TCOON:003:1,2015-04-11T04:18:00Z,26.8015,-97.4706,1.202,1111122 
TCOON,ioos:station:TCOON:003:1,2015-04-11T05:12:00Z,26.8015,-97.4706,1.207,1111122 
TCOON,ioos:station:TCOON:003:1,2015-04-11T06:30:00Z,26.8015,-97.4706,1.214,1111122 
TCOON,ioos:station:TCOON:003:1,2015-04-11T07:42:00Z,26.8015,-97.4706,1.204,1111122 
TCOON,ioos:station:TCOON:003:1,2015-04-11T08:30:00Z,26.8015,-97.4706,1.189,1111122 
TCOON,ioos:station:TCOON:003:1,2015-04-11T09:12:00Z,26.8015,-97.4706,1.18,1111122 
TCOON,ioos:station:TCOON:003:1,2015-04-11T10:18:00Z,26.8015,-97.4706,1.173,1111122 
TCOON,ioos:station:TCOON:003:1,2015-04-11T11:18:00Z,26.8015,-97.4706,1.161,1111122 
TCOON,ioos:station:TCOON:003:1,2015-04-11T12:12:00Z,26.8015,-97.4706,1.142,1111122 
TCOON,ioos:station:TCOON:003:1,2015-04-11T13:12:00Z,26.8015,-97.4706,1.135,1111122 
TCOON,ioos:station:TCOON:003:1,2015-04-11T14:12:00Z,26.8015,-97.4706,1.139,1111122 
TCOON,ioos:station:TCOON:003:1,2015-04-11T15:24:00Z,26.8015,-97.4706,1.153,1111122 
TCOON,ioos:station:TCOON:003:1,2015-04-11T16:12:00Z,26.8015,-97.4706,1.165,1111122 
TCOON,ioos:station:TCOON:003:1,2015-04-11T17:12:00Z,26.8015,-97.4706,1.166,1111122 
TCOON,ioos:station:TCOON:003:1,2015-04-11T18:24:00Z,26.8015,-97.4706,1.149,1111122 
TCOON,ioos:station:TCOON:003:1,2015-04-11T19:24:00Z,26.8015,-97.4706,1.156,1111122 
TCOON,ioos:station:TCOON:003:1,2015-04-11T20:30:00Z,26.8015,-97.4706,1.181,1111122 
TCOON,ioos:station:TCOON:003:1,2015-04-11T21:12:00Z,26.8015,-97.4706,1.194,1111122 
TCOON,ioos:station:TCOON:003:1,2015-04-11T23:06:00Z,26.8015,-97.4706,1.202,1111122 
TCOON,ioos:station:TCOON:003:1,2015-04-12T00:12:00Z,26.8015,-97.4706,1.212,1111122 
TCOON,ioos:station:TCOON:003:1,2015-04-12T01:12:00Z,26.8015,-97.4706,1.225,1111122 
TCOON,ioos:station:TCOON:003:1,2015-04-12T02:12:00Z,26.8015,-97.4706,1.202,1111122 
TCOON,ioos:station:TCOON:003:1,2015-04-12T03:12:00Z,26.8015,-97.4706,1.17,1111122 
TCOON,ioos:station:TCOON:003:1,2015-04-12T04:12:00Z,26.8015,-97.4706,1.152,1111122 
TCOON,ioos:station:TCOON:003:1,2015-04-12T05:12:00Z,26.8015,-97.4706,1.16,1111122 
TCOON,ioos:station:TCOON:003:1,2015-04-12T07:06:00Z,26.8015,-97.4706,1.199,1111122 
TCOON,ioos:station:TCOON:003:1,2015-04-12T08:30:00Z,26.8015,-97.4706,1.287,1111122 
TCOON,ioos:station:TCOON:003:1,2015-04-12T09:12:00Z,26.8015,-97.4706,1.293,1111122 
TCOON,ioos:station:TCOON:003:1,2015-04-12T10:12:00Z,26.8015,-97.4706,1.249,1111122 
TCOON,ioos:station:TCOON:003:1,2015-04-12T11:12:00Z,26.8015,-97.4706,1.182,1111122 
TCOON,ioos:station:TCOON:003:1,2015-04-12T12:12:00Z,26.8015,-97.4706,1.147,1111122 
TCOON,ioos:station:TCOON:003:1,2015-04-12T13:24:00Z,26.8015,-97.4706,1.132,1111122 
TCOON,ioos:station:TCOON:003:1,2015-04-12T14:42:00Z,26.8015,-97.4706,1.145,1111122 
TCOON,ioos:station:TCOON:003:1,2015-04-12T15:24:00Z,26.8015,-97.4706,1.162,1111122 
TCOON,ioos:station:TCOON:003:1,2015-04-12T16:36:00Z,26.8015,-97.4706,1.191,1111122 
TCOON,ioos:station:TCOON:003:1,2015-04-12T17:12:00Z,26.8015,-97.4706,1.199,1111122 
TCOON,ioos:station:TCOON:003:1,2015-04-12T18:12:00Z,26.8015,-97.4706,1.206,1111122 
TCOON,ioos:station:TCOON:003:1,2015-04-12T19:24:00Z,26.8015,-97.4706,1.209,1111122 
TCOON,ioos:station:TCOON:003:1,2015-04-12T20:48:00Z,26.8015,-97.4706,1.198,1111122 
TCOON,ioos:station:TCOON:003:1,2015-04-12T22:12:00Z,26.8015,-97.4706,1.203,1111122 
TCOON,ioos:station:TCOON:003:1,2015-04-12T23:12:00Z,26.8015,-97.4706,1.222,1111122 
TCOON,ioos:station:TCOON:003:1,2015-04-13T00:12:00Z,26.8015,-97.4706,1.277,1111122 
TCOON,ioos:station:TCOON:003:1,2015-04-13T01:12:00Z,26.8015,-97.4706,1.327,1111122 
TCOON,ioos:station:TCOON:003:1,2015-04-13T02:24:00Z,26.8015,-97.4706,1.329,1111122 
TCOON,ioos:station:TCOON:003:1,2015-04-13T03:12:00Z,26.8015,-97.4706,1.309,1111122 
TCOON,ioos:station:TCOON:003:1,2015-04-13T04:24:00Z,26.8015,-97.4706,1.313,1111122 
TCOON,ioos:station:TCOON:003:1,2015-04-13T05:18:00Z,26.8015,-97.4706,1.246,1111122 
TCOON,ioos:station:TCOON:003:1,2015-04-13T07:36:00Z,26.8015,-97.4706,1.14,1111122 
TCOON,ioos:station:TCOON:003:1,2015-04-13T08:18:00Z,26.8015,-97.4706,1.19,1111122 